Powrót do katalogu

ANOKHIN S.N.

AktywnyNawigacjaSSO
NORAD 57193·PAYLOAD·🇷🇺 Russia
Ta nazwa satelity nie została jeszcze potwierdzona przez oficjalne źródła.

Wystrzelony Jun 27, 2023 z Vostochny Cosmodrome

Loading…

Następne Przeloty (najbliższe 24 godziny)

TLE

ŚwieżeSource: Space-Track

Epoka: Sep 14, 2026, 15:05 UTC

1 57193U 23091AD  26257.62903118  .00011855  00000-0  35890-3 0  9990
2 57193  97.4965 324.4308 0010874 135.9947 224.2163 15.34276274178152

Śledź ANOKHIN S.N. w czasie rzeczywistym z AllMySat

Download on the App Store